Theta_e
315 317 318 315 316 320 321 323 323 325 325 328 334 333 328 327 328 328 326 328 325 327
314 316 314 316 318 320 321 322 319 318 317 321 326 329 329 329 329 327 325 325 325 324
314 315 314 313 318 317 317 317 317 316 315 314 319 323 324 323 324 323 322 322 324 323
311 311 311 314 317 316 316 316 316 315 314 314 313 315 317 317 318 318 320 322 325 327
310 310 310 313 313 314 315 315 315 315 314 314 314 313 312 314 318 318 317 319 322 325
308 307 309 309 310 311 312 311 313 315 314 313 313 314 313 314 314 314 316 323 324 323
304 305 307 306 307 308 309 309 311 313 314 314 314 315 316 316 313 313 313 315 319 321
304 304 304 305 305 306 306 307 310 312 312 312 312 314 313 312 311 310 311 313 314 314
305 306 305 305 305 304 304 304 306 308 310 310 313 309 307 310 312 313 313 314 314 317
305 306 305 306 305 303 303 302 303 305 307 308 309 306 304 307 311 313 314 314 312 315
304 304 304 303 302 301 300 300 300 301 304 306 308 305 303 304 310 312 313 314 314 318
301 301 301 302 303 303 301 300 299 302 302 304 306 303 302 303 310 313 313 316 318 316
297 297 297 298 299 301 302 302 304 303 304 304 303 302 301 303 311 312 312 314 316 308
295 295 296 296 297 298 299 301 302 302 301 302 303 305 301 299 308 312 311 311 314 311
Wind_Speed
2 2 2 2 2 1 1 2 5 5 7 9 8 9 8 8 9 9 8 11 9 11
4 5 5 4 3 3 3 1 1 1 3 6 8 8 9 7 10 9 9 11 14 12
7 6 5 4 4 3 4 4 4 3 2 3 5 6 5 5 5 6 8 7 6 8
7 7 7 7 7 6 4 5 4 5 5 5 5 5 5 6 8 10 8 7 8 12
8 8 8 7 8 7 7 5 6 6 5 5 6 6 7 7 5 8 9 12 13 12
9 8 9 9 8 7 7 7 5 6 6 5 6 6 7 9 10 6 5 7 7 7
8 9 10 8 8 7 8 7 6 7 6 6 6 6 7 7 7 9 9 7 9 15
8 7 7 7 8 8 8 8 7 6 6 7 6 6 8 6 8 10 11 11 13 18
7 7 8 9 10 9 9 7 6 6 6 6 5 10 12 10 8 11 12 12 15 15
7 9 9 9 8 8 8 7 7 7 6 7 7 12 15 16 8 11 11 15 20 20
10 10 8 7 8 8 6 7 7 7 7 7 8 14 17 17 10 9 10 14 24 12
14 15 15 15 14 10 8 6 6 8 7 7 7 12 16 14 9 7 9 13 15 7
13 15 16 17 16 15 15 17 14 15 12 10 7 9 14 13 6 8 6 7 7 7
13 15 14 14 13 14 14 12 11 10 8 8 7 8 12 11 7 8 5 6 6 8
Wind_Direction
186 203 243 269 293 334 40 19 39 4 358 338 300 265 250 244 244 224 210 206 203 227
212 194 210 232 195 156 159 194 35 79 323 336 329 305 269 260 262 257 251 245 241 240
207 211 219 238 238 219 191 171 170 194 219 275 304 310 308 291 276 267 256 249 246 227
210 222 220 218 220 228 203 207 200 197 213 247 255 277 271 255 258 266 263 259 244 239
215 214 222 225 226 221 223 211 202 215 215 242 255 249 248 262 259 238 248 255 245 220
217 213 220 224 226 227 230 232 205 219 224 230 239 237 233 242 258 239 238 262 248 247
247 228 226 226 228 232 233 233 226 222 232 241 268 255 249 241 241 234 242 235 248 239
272 272 274 269 249 241 237 237 229 221 219 218 225 238 244 225 235 240 236 230 250 252
263 249 240 241 240 240 249 254 248 238 234 247 246 250 250 228 242 245 254 270 270 263
280 273 260 255 251 244 238 232 230 232 225 236 241 257 265 249 246 261 273 285 277 270
290 289 290 275 254 245 236 237 244 242 228 231 246 249 257 257 249 264 281 286 305 192
284 280 275 270 265 254 248 244 231 250 249 239 247 248 257 258 252 263 291 300 292 92
304 297 291 287 286 280 274 275 263 265 249 223 238 248 266 254 242 253 280 290 245 200
287 285 285 286 280 272 269 275 264 241 230 222 233 246 257 240 244 253 257 288 185 188